Regional Weather Roundup
Issued by NWS

Current Version | Previous Version | Text Only | Print | Product List | Glossary On
Versions: 1 2 3 4 5 6 7 8 9 10 11 12 13 14 15 16 17 18 19 20 21 22 23 24 25 26 27 28 29 30 31 32 33 34 35 36 37 38 39 40 41 42 43 44 45 46 47 48 49 50
000
ASUS44 KFWD 180315
RWRTX
NORTH TEXAS HOURLY WEATHER ROUNDUP
NATIONAL WEATHER SERVICE FORT WORTH TX
900 PM CST TUE JAN 17 2017

NOTE: "FAIR" INDICATES FEW OR NO CLOUDS BELOW 12,000 FEET WITH NO
SIGNIFICANT WEATHER AND/OR OBSTRUCTIONS TO VISIBILITY.

TXZ118-119-180400-
DALLAS/FORT WORTH METROPLEX

CITY           SKY/WX    TMP DP  RH WIND       PRES   REMARKS
DFW AIRPORT    CLOUDY    48  45  89 N14       30.14F
DALLAS LOVE    CLOUDY    48  44  86 N10       30.16F
FTW MEACHAM    CLOUDY    48  43  82 N10       30.15F
DAL-EXECUTIVE  CLOUDY    47  45  93 N8        30.15F
FTW-ALLIANCE   CLOUDY    46  43  89 NE8       30.15F
FTW-SPINKS     CLOUDY    47  44  90 N9        30.16F
ARLINGTON      CLOUDY    47  43  86 N8        30.16F
GRAND PRAIRIE  CLOUDY    46  43  89 N8        30.18F
ADDISON        CLOUDY    46  46 100 N12       30.17F
MESQUITE       CLOUDY    46  45  99 N7        30.17F
LANCASTER      CLOUDY    47  45  93 N9        30.17F
$$

TXZ091>094-102>105-117-120-121-131>134-180400-
NORTH CENTRAL TEXAS

CITY           SKY/WX    TMP DP  RH WIND       PRES   REMARKS
SHRMAN/DENISON RAIN      46  46 100 NW5       30.22R
GAINESVILLE    RAIN      45  43  93 CALM      30.21R
BOWIE          DRIZZLE   46  46 100 CALM      30.16S
BRIDGEPORT     LGT RAIN  46  46 100 CALM      30.19F
DECATUR        CLOUDY    61  61  99 NE3       30.15F
DENTON         LGT RAIN  46  44  93 NE12      30.16F
MCKINNEY       CLOUDY    47  45  93 N10       30.19R
BONHAM         LGT RAIN  45  43  93 N7        30.19F
GREENVILLE     CLOUDY    46  45  93 CALM      30.21R
ROCKWALL       LGT RAIN  46  46  98 N6        30.18R
TERRELL        CLOUDY    47  43  86 N12       30.16F
WAXAHACHIE     CLOUDY    46  46 100 N9        30.16F
CLEBURNE       CLOUDY    46  46 100 N10       30.17R
GRANBURY       LGT RAIN  47  45  90 N6        30.17S
$$

TXZ083>090-098>101-113>116-127>130-139>142-154-155-180400-
WESTERN NORTH TEXAS

CITY           SKY/WX    TMP DP  RH WIND       PRES   REMARKS
WICHITA FALLS  CLOUDY    44  43  96 E8        30.15F WCI  39
WF-KICKAPOO    CLOUDY    44  44  99 E3        30.16F
VERNON         CLOUDY    45  41  84 W7        30.20R
ABILENE        LGT RAIN  42  42 100 CALM      30.18R
ABILENE-DYESS  LGT RAIN  43  40  87 CALM      30.16R
GRAHAM         RAIN      45  45 100 W3        30.15R
BRECKENRIDGE   DRIZZLE   46  46  99 NE5       30.15S
CISCO          CLOUDY    45  45 100 VRB5      30.14S
RANGER         CLOUDY    43  43 100 NE5       30.14R
MINERAL WELLS  CLOUDY    46  43  89 NE7       30.13F
STEPHENVILLE   CLOUDY    45  42  91 CALM      30.16R
COMANCHE       LGT RAIN  45  45 100 NE6       30.14S
BROWNWOOD      CLOUDY    46  45  93 NE5       30.14R
COLEMAN        LGT RAIN  45  43  93 NW5       30.16R
$$

TXZ143>147-156>162-174-175-180400-
CENTRAL TEXAS

CITY           SKY/WX    TMP DP  RH WIND       PRES   REMARKS
WACO           LGT RAIN  47  46  97 N10       30.15S
WACO-MCGREGOR  LGT RAIN  46  45  96 N10       30.16R
CORSICANA      TSTM      49  46  90 N9        30.17R FOG
MEXIA          RAIN      47  46  94 N7        30.11S
HEARNE         CLOUDY    51  51  99 N5        30.09S
CAMERON        CLOUDY    48  47  97 NW12      30.14R
TEMPLE         LGT RAIN  46  45  93 N14       30.12F
KILLEEN        CLOUDY    44  44  98 NE12      30.11F FOG     WCI  38
KILLEEN-SKYLRK CLOUDY    46  45  96 N7        30.14S
FORT HOOD      LGT RAIN  45  43  93 N8        30.15R FOG
GATESVILLE     CLOUDY    45  45 100 N5        30.17R
HAMILTON       CLOUDY    46  46 100 NE8       30.14S
LAMPASAS       CLOUDY    45  43  95 N5        30.13R
$$

TXZ095>097-106>112-122>126-135>138-148>153-164>167-180400-
EAST TEXAS

CITY           SKY/WX    TMP DP  RH WIND       PRES   REMARKS
PARIS          CLOUDY    46  41  81 W5        30.22R
SULPHUR SPRNGS LGT RAIN  48  44  84 N7        30.21F
MOUNT PLEASANT CLOUDY    49  47  94 N9        30.19S
GILMER         RAIN      48  47  97 NW6       30.17R
MINEOLA        LGT RAIN  48  46  93 CALM      30.18S FOG
TYLER          CLOUDY    50  48  93 N8        30.14F
LONGVIEW       CLOUDY    50  49  96 N3        30.13S
MARSHALL       CLOUDY    50  48  92 CALM      30.16F
ATHENS         CLOUDY    46  46 100 N8        30.13S
PALESTINE      RAIN      50  50  99 N3        30.14R
JACKSONVILLE   CLOUDY    50  50 100 NE8       30.13F
HENDERSON      LGT RAIN  50  50 100 NE5       30.14S
CENTER         CLOUDY    54  52  95 NE5       30.15R
NACOGDOCHES    CLOUDY    54  50  87 CALM      30.12R
LUFKIN         CLOUDY    54  53  97 E6        30.11S
$$

SUPPLEMENTAL OBSERVATIONS (CENTRAL)

CITY           SKY/WX    TMP DP  RH WIND       PRES   REMARKS
DENISON DAM      N/A     46  43  87 N3          N/A
CADDO GRASSLND   N/A     45  41  87 W1          N/A
PAT MAYSE LAKE   N/A     45  43  93 W3          N/A
GREENVILLE       N/A     46  43  87 N8          N/A
CEDAR HILL       N/A     46  41  81 N6          N/A
LAKE LIMESTONE   N/A     50  46  87 NE9         N/A
MCGREGOR         N/A     46  45  93 N8G16       N/A
TEMPLE           N/A     46  45  93 N7G16       N/A
$$

SUPPLEMENTAL OBSERVATIONS (WEST)

CITY           SKY/WX    TMP DP  RH WIND       PRES   REMARKS
MILLERS CREEK    N/A     45  43  93 W7          N/A
POSSUM KINGDOM   N/A     45  43  93 N1G9        N/A
LBJ GRASSLAND    N/A     45  43  93 N5          N/A
GRANBURY         N/A     46  45  93 N6          N/A
COMANCHE         N/A     45  43  93 NE6         N/A
HAMBY            N/A     43  41  93 NW1         N/A
IVIE RESERVOIR   N/A     45  41  87 NW6         N/A
COLORADO BEND    N/A     46  39  76 E5          N/A
$$

SUPPLEMENTAL OBSERVATIONS (EAST)

CITY           SKY/WX    TMP DP  RH WIND       PRES   REMARKS
CLARKSVILLE      N/A     48  41  76 NW5         N/A
TEXARKANA        N/A     50  48  93 CALM        N/A
CADDO LAKE       N/A    N/A N/A N/A E1          N/A
GILMER           N/A     48  46  93 N3          N/A
HENDERSON        N/A     50  48  93 NE3         N/A
LUFKIN           N/A     54  50  87 MISG        N/A
N SABINE NF      N/A     54  52  94 MISG        N/A
S SABINE NF      N/A     54  52  94 N2          N/A
$$

SUPPLEMENTAL OBSERVATIONS ARE A COLLECTION OF AUTOMATED INSTRUMENTS
THAT ARE MAINTAINED BY A VARIETY OF FEDERAL AND STATE AGENCIES.
CERTAIN ELEMENTS...SUCH AS HUMIDITY VALUES AND SUSTAINED WIND
SPEEDS...MAY BE APPROXIMATED.





USA.gov is the U.S. government's official web portal to all federal, state and local government web resources and services.